Location: Brookview Estates
(36.0476°N, 86.6931°W)
Time: 00:06:41
(UTC+00:00)

Cosmos 2237 Rocket - Pass Details

Date: 30 March 2020
Orbit: 833 x 851 km, 71.0° (Epoch: 04 June)

Event Time Altitude Azimuth Distance (km) Brightness Sun altitude
Rises 09:11:00 0° 350° (N) 3,403 5.6 -28.5°
Reaches altitude 10° 09:13:52 10° 3° (N) 2,468 5.0 -28.0°
Maximum altitude 09:18:34 26° 59° (ENE) 1,595 4.3 -27.2°
Drops below altitude 10° 09:23:16 10° 115° (ESE) 2,467 5.1 -26.3°
Sets 09:26:06 0° 128° (SE) 3,401 5.7 -25.8°
